www.pogodaiklimat.ru

Погода и климат >> Архив погоды >> Украина >> Нежин


ПОГОДА в Нежине

  • Прогноз погоды в Нежине
  • Монитор погоды в Нежине

АРХИВ ПОГОДЫ в Нежине

Время (UTC), дата Ветер
(напр.,м/с)
 
Видим.   Явления Облачность Т
(С)
Тd
(С)
f
(%)
Тe
(С)
Тes
(С)
Комфортность P
(гПа)
Po
(гПа)
Тmin
(С)
Tmax
(С)
R
(мм)
R24
(мм)
S
(см)
12 10.07 З 2 10 км в посл. час ливневой дождь 8/5 300 м
[Cb cap Cc]
+16.9 +13.4 80 +17 +17 1004.0 989.3 3
15 10.07 З 4 10 км 6/3 600 м
[Cb cap Ci ing]
+19.8 +12.8 64 +22 +23 комфорт 1004.0 989.4
18 10.07 штиль 0 10 км {гроза, ливн. осадки} 3/0
[Ac cuf Ci ing]
+13.9 +12.1 89 +13 +13 1005.0 990.1 +19.8 6
21 10.07 ЮЗ 1 5000 м дымка 1/0
[Ci fib]
+10.8 +10.2 96 +10 +10 1005.0 989.9
00 11.07 З 2 3800 м дымка ясно +11.1 +10.6 97 +10 +10 1005.0 989.9
03 11.07 З 3 500 м туман ?/? +10.4 +10.4 100 +8 +9 1005.0 989.9
06 11.07 З 3 1500 м в посл. час туман 10/10 150 м
[St]
+11.7 +11.5 99 +10 +10 1006.0 991.0 +10.0
09 11.07 З 2 10 км 10/10 450 м
[Cb cap]
+14.8 +12.1 84 +14 +14 1006.0 991.1
12 11.07 ЮЗ 2 10 км 8/8 600 м
[Cb calv]
+18.4 +11.5 64 +19 +22 1005.0 990.4
15 11.07 СЗ 3 10 км 8/6 600 м
[Cb calv Ac trans Ci fib]
+19.8 +10.2 54 +21 +22 комфорт 1004.9 990.3
18 11.07 З 1 10 км 8/6 600 м
[Cb calv Ac cast]
+15.9 +13.2 84 +17 +17 1005.9 991.1 +20.9
21 11.07 штиль 0 5000 м дымка 1/1 1000 м
[Sc diur, vesp]
+12.2 +11.4 95 +12 +12 1006.7 991.7
00 12.07 З 1 5000 м дымка ясно +10.6 +10.0 96 +10 +10 1007.0 991.9
03 12.07 З 1 500 м туман ?/? +10.6 +10.6 100 +10 +10 1007.2 992.1
06 12.07 ЮЗ 1 5000 м дымка {туман} 9/3 600 м
[Cb cap Ac trans]
+14.5 +12.9 90 +15 +15 1008.0 993.1 +10.1
09 12.07 ЮЗ 2 10 км 8/5 600 м
[Cb calv Ac trans]
+19.6 +12.4 63 +22 +22 комфорт 1007.0 992.4
12 12.07 СЗ 3 5000 м гроза, ливневой дождь 9/9 720 м
[Cb cap]
+14.9 +13.1 89 +14 +14 1007.0 992.1 3
15 12.07 С 2 10 км {гроза, ливн. осадки} 8/4 600 м
[Cb cap Ac cuf]
+19.9 +14.0 69 +22 +22 комфорт 1007.0 992.4
18 12.07 штиль 0 5000 м дымка {гроза, ливн. осадки} 8/5 600 м
[Sc Ac lent]
+15.2 +14.2 94 +15 +15 1008.0 993.1 +21.8 4
21 12.07 штиль 0 5000 м дымка 4/0
[Ac trans]
+12.4 +11.6 95 +12 +12 1009.0 994.0
00 13.07 штиль 0 5000 м дымка ясно +10.3 +9.7 96 +9 +9 1009.0 993.8
03 13.07 штиль 0 5000 м дымка {ливн. осадки} 8/3 600 м
[Cb cap Ac lent]
+11.7 +10.9 95 +11 +11 1009.0 993.9
06 13.07 С 1 5000 м дымка {ливн. осадки} 8/3 600 м
[Cb calv Ac trans]
+14.8 +13.7 93 +15 +15 1009.0 994.1 +9.7 0.1
09 13.07 С 2 10 км 8/6 600 м
[Cb calv Ac trans]
+20.2 +11.7 58 +23 +23 комфорт 1009.0 994.3
12 13.07 З 4 5000 м слаб. ливневой дождь 9/8 600 м
[Cb cap Ac lent]
+15.8 +12.2 79 +15 +15 1010.0 995.1 0.4
15 13.07 СЗ 1 10 км {ливн. осадки} 4/3 600 м
[Cb calv Ac lent]
+21.5 +10.0 48 +23 +26 комфорт 1009.0 994.4
18 13.07 штиль 0 10 км {ливн. осадки} 3/3 1000 м
[Sc diur, vesp]
+16.2 +13.3 83 +16 +16 1010.0 995.1 +21.9 0.9
21 13.07 штиль 0 10 км ясно +13.0 +11.1 88 +12 +12 1010.0 995.0
00 14.07 штиль 0 5000 м дымка 5/0
[Ac trans]
+12.2 +10.9 92 +12 +12 1010.0 994.9
03 14.07 штиль 0 5000 м дымка 1/0
[Ci fib]
+11.5 +10.7 95 +11 +11 1010.0 994.9
06 14.07 ЮВ 1 10 км 8/0
[Ci fib]
+19.0 +12.7 67 +21 +21 комфорт 1010.0 995.3 +8.9
09 14.07 ЮВ 2 10 км 8/6 1000 м
[Cu med, cong Ci fib]
+22.6 +9.4 43 +24 +24 комфорт 1010.0 995.4
12 14.07 ЮВ 2 10 км 9/8 1000 м
[Cu med, cong Cc]
+23.7 +9.7 41 +25 +25 комфорт 1009.0 994.5
15 14.07 СВ 1 10 км 9/6 600 м
[Cb cap Cs]
+23.6 +11.0 45 +25 +25 комфорт 1008.0 993.5
18 14.07 штиль 0 10 км 8/0
[Ac cast Ci fib]
+18.0 +13.5 75 +18 +18 1009.0 994.2 +24.6
21 14.07 З 1 5000 м дымка 4/3 600 м
[Cb calv Ac cast]
+14.8 +13.6 93 +15 +15 1009.2 994.3
00 15.07 штиль 0 5000 м дымка 10/0
[Ac und]
+13.7 +12.6 93 +13 +13 1009.0 994.0
03 15.07 штиль 0 5000 м дымка 8/4 600 м
[Cb cap Ac cast]
+13.5 +12.6 94 +13 +13 1009.0 994.0
06 15.07 штиль 0 5000 м слаб. ливневой дождь 10/6 600 м
[Cb cap Ac und]
+15.5 +14.5 94 +15 +15 1009.0 994.1 +12.5 0.1
09 15.07 штиль 0 5000 м слаб. ливневой дождь 10/8 660 м
[Cb cap Ac und]
+18.3 +15.0 81 +19 +19 1009.0 994.3
12 15.07 СЗ 2 10 км {ливн. осадки} 8/3 1000 м
[Cu med, cong Ac trans Cc]
+21.1 +15.0 68 +24 +24 комфорт 1009.0 994.4 0.5
15 15.07 СЗ 3 10 км 8/6 600 м
[Cb cap Cc]
+22.0 +15.1 65 +26 +26 душно 1009.0 994.5
18 15.07 СЗ 2 10 км 8/6 600 м
[Cb cap Ac cast Ci ing]
+18.7 +14.2 75 +20 +20 1010.0 995.3 +22.4 0.5
21 15.07 штиль 0 5000 м слаб. ливневой дождь 9/9 660 м
[Cb cap]
+16.3 +15.2 93 +16 +16 1010.0 995.2
00 16.07 СЗ 1 5000 м дымка {ливн. осадки} 6/0
[Ci fib]
+15.3 +14.8 97 +16 +16 1009.0 994.1 0.1
03 16.07 СЗ 2 500 м туман ?/? +14.4 +14.4 100 +14 +14 1009.0 994.1
06 16.07 СЗ 1 10 км {туман} 5/5 600 м
[Cu hum]
+17.4 +14.8 85 +18 +22 1009.0 994.2 +14.3 0.1
09 16.07 СЗ 2 10 км 8/8 600 м
[Cb calv]
+20.8 +14.0 65 +24 +24 комфорт 1009.0 994.4
12 16.07 СЗ 2 10 км 8/8 600 м
[Cu med, cong]
+23.6 +12.3 49 +25 +25 комфорт 1008.0 993.5
15 16.07 СЗ 1 10 км 6/6 600 м
[Cu med, cong]
+24.4 +12.0 46 +26 +28 жарко 1007.0 992.6
18 16.07 З 1 10 км 3/3 600 м
[Cb calv Ci fib]
+19.7 +13.4 67 +23 +23 комфорт 1008.0 993.3 +24.5
21 16.07 штиль 0 5000 м дымка ясно +13.8 +13.3 97 +13 +13 1008.0 993.0
00 17.07 штиль 0 3800 м дымка ясно +12.0 +11.5 97 +11 +11 1007.0 992.0
03 17.07 штиль 0 3800 м дымка 8/0
[Ac trans Ci fib]
+13.4 +12.8 96 +13 +13 1006.0 991.1
06 17.07 З 3 10 км 10/0
[Ac cast Cs]
+17.7 +12.8 73 +18 +18 1006.0 991.3 +11.0
09 17.07 ЮЗ 3 10 км 10/3 600 м
[Sc Ac und Cs]
+17.3 +12.4 73 +17 +17 1007.0 992.2

 

Местоположение метеостанции Нежин (Черниговская область, Украина): широта 51.05 долгота 31.90 высота над уровнем моря 126 м.

В архиве по умолчанию представлена погода в Нежине за последнюю неделю. Архивные данные за месяц целиком и за предыдущие месяцы, начиная с января 2011 года, Вы можете получить, выбрав интересующий диапазон дат из раскрывающегося списка и нажав кнопку "Ввод!".


*Определитесь, кто Вы:
робот инопланетянин человек

Внимание! Время в таблицах - всемирное. Для получения местного времени необходимо прибавить поправку, которая равна 2 ч.

Смотрите также архив погоды в соседних городах и на ближайших метеорологических станциях:

Погода в Покошичах (Черниговская область, Украина) (51 км)
Погода в Прилуках (Черниговская область, Украина) (62 км)
Погода в Чернигове (Черниговская область, Украина) (65 км)
Погода в Остере (Черниговская область, Украина) (72 км)
Погода в Щорсе (Черниговская область, Украина) (84 км)
Погода в Барышевке (Киевская область, Украина) (86 км)
Погода в Яготине (Киевская область, Украина) (93 км)
Погода в Конотопе (Сумская область, Украина) (93 км)
Погода в Борисполе (Киевская область, Украина) (103 км)
Погода в Вышгороде (Киевская область, Украина) (113 км)

Пояснения к столбцам:

Ветер - указаны скорость ветра в м/с - средняя за 10 мин, порывы в срок и между сроками (в фигурных скобках) и направление, откуда дует ветер: С - северный, СВ - северо-восточный, В - восточный, ЮВ - юго-восточный, Ю - южный, ЮЗ - юго-западный, З - западный, СЗ - северо-западный.
Видимость - горизонтальная дальность видимости в метрах или километрах. При видимости от 1 до 10 км при отсутствии осадков обычно наблюдается дымка, при ухудшении видимости до 1 км и менее - туман. В сухую погоду видимость может ухудшаться дымом, пылью или мглою.
Явления - указаны атмосферные явления, наблюдавшиеся в срок или в последний час перед сроком; фигурными скобками обозначены явления, наблюдавшиеся между сроками (за 1-3 часа до срока); квадратными скобками обозначены град или гололедные отложения с указанием их диаметра в мм.
Облачность - указаны через наклонную черту общая и нижняя облачность в баллах и высота нижней границы облаков в метрах; квадратными скобками обозначены формы облаков: Ci - перистые, Cs - перисто-слоистые, Cc - перисто-кучевые, Ac - высококучевые, As - высокослоистые, Sc - слоисто-кучевые, Ns - слоисто-дождевые, Cu - кучевые, Cb - кучево-дождевые. Подробнее классификацию облаков см. в Атласе облаков (PDF).
T - Температура воздуха - температура, измеренная на высоте 2 м над землей.
Td - Температура точки росы - температура, при понижении до которой содержащийся в воздухе водяной пар достигнет насыщения.
f - Относительная влажность воздуха - влажноcть воздуха, измеренная на высоте 2 м над землей.
Te - Эффективная температура - температура, которую ощущает одетый по сезону человек в тени. Характеристика душности погоды. При расчете учитывается влияние влажности воздуха и скорости ветра на теплоощущения человека.
Tes - Эффективная температура на солнце - температура, которую ощущает человек, с поправкой на солнечный нагрев. Характеристика знойности погоды. Зависит от высоты солнца над горизонтом, облачности и скорости ветра. Ночью, в пасмурную погоду, а также при ветре 12 м/с и более поправка равна нулю.
P - Атмосферное давление - приведенное к уровню моря атмосферное давление.
Po - Атмосферное давление - измеренное на уровне метеостанции атмосферное давление.
Tmin - Минимальная температура - минимум температуры воздуха на высоте 2 м над землей.
Tmax - Максимальная температура - максимум температуры воздуха на высоте 2 м над землей.
R - Количество осадков - Количество выпавших осадков за период времени, мм. При наведении курсора мыши на число - период времени, за который выпало указанное количество осадков.
R24 - Количество осадков - Количество выпавших осадков за 24 часа, мм.
S - Снежный покров - Высота снежного покрова, см. При наведении курсора мыши на число - состояние снежного покрова и степень покрытия местности в баллах.